Time,TemperatureF,DewpointF,PressureIn,WindDirection,WindDirectionDegrees,WindSpeedMPH,WindSpeedGustMPH,Humidity,HourlyPrecipIn,Conditions,Clouds,dailyrainin,SoftwareType,DateUTC
2013-02-11 00:00:00,43.0,41.9,30.16,SSE,157,3.0,10.0,96,0.00,,,0.00,Weather View 32 v70,2013-02-11 05:00:00,
2013-02-11 00:05:00,43.0,41.9,30.16,SSE,157,6.0,10.0,96,0.00,,,0.00,Weather View 32 v70,2013-02-11 05:05:00,
2013-02-11 00:10:00,43.0,41.9,30.15,SE,135,6.0,10.0,96,0.00,,,0.00,Weather View 32 v70,2013-02-11 05:10:00,
2013-02-11 00:15:00,43.0,41.9,30.15,SE,135,3.0,10.0,96,0.00,,,0.00,Weather View 32 v70,2013-02-11 05:15:00,
2013-02-11 00:20:00,43.0,41.9,30.15,SSE,157,4.0,10.0,96,0.00,,,0.00,Weather View 32 v70,2013-02-11 05:20:00,
2013-02-11 00:25:00,43.0,41.9,30.15,SE,135,5.0,10.0,96,0.00,,,0.00,Weather View 32 v70,2013-02-11 05:25:00,
2013-02-11 00:30:00,43.0,41.9,30.14,SSE,157,5.0,9.0,96,0.00,,,0.00,Weather View 32 v70,2013-02-11 05:30:00,
2013-02-11 00:35:00,43.0,41.9,30.14,SE,135,4.0,9.0,96,0.00,,,0.00,Weather View 32 v70,2013-02-11 05:35:00,
2013-02-11 00:40:00,43.0,41.9,30.13,South,180,4.0,9.0,96,0.00,,,0.00,Weather View 32 v70,2013-02-11 05:40:00,
2013-02-11 00:45:00,43.0,41.9,30.13,SE,135,5.0,9.0,96,0.00,,,0.00,Weather View 32 v70,2013-02-11 05:45:00,
2013-02-11 00:50:00,44.0,43.2,30.12,SE,135,5.0,9.0,97,0.00,,,0.00,Weather View 32 v70,2013-02-11 05:50:00,
2013-02-11 00:55:00,44.0,43.2,30.12,SSE,157,5.0,9.0,97,0.00,,,0.00,Weather View 32 v70,2013-02-11 05:55:00,
2013-02-11 01:00:00,44.0,43.2,30.11,SSW,202,3.0,9.0,97,0.00,,,0.00,Weather View 32 v70,2013-02-11 06:00:00,
2013-02-11 01:05:00,44.0,43.2,30.11,South,180,2.0,9.0,97,0.00,,,0.00,Weather View 32 v70,2013-02-11 06:05:00,
2013-02-11 01:10:00,44.0,43.2,30.12,South,180,0.0,9.0,97,0.00,,,0.00,Weather View 32 v70,2013-02-11 06:10:00,
2013-02-11 01:15:00,44.0,43.2,30.12,SSW,202,1.0,9.0,97,0.00,,,0.00,Weather View 32 v70,2013-02-11 06:15:00,
2013-02-11 01:20:00,44.0,43.2,30.13,SSW,202,4.0,9.0,97,0.00,,,0.00,Weather View 32 v70,2013-02-11 06:20:00,
2013-02-11 01:25:00,45.0,44.2,30.13,SSW,202,0.0,9.0,97,0.00,,,0.00,Weather View 32 v70,2013-02-11 06:25:00,
2013-02-11 01:30:00,45.0,44.2,30.13,SSW,202,4.0,9.0,97,0.00,,,0.00,Weather View 32 v70,2013-02-11 06:30:00,
2013-02-11 01:35:00,45.0,44.2,30.12,SSW,202,1.0,8.0,97,0.00,,,0.00,Weather View 32 v70,2013-02-11 06:35:00,
2013-02-11 01:40:00,45.0,44.2,30.12,SSW,202,3.0,8.0,97,0.00,,,0.00,Weather View 32 v70,2013-02-11 06:40:00,
2013-02-11 01:45:00,46.0,45.2,30.12,SSW,202,5.0,8.0,97,0.00,,,0.00,Weather View 32 v70,2013-02-11 06:45:00,
2013-02-11 01:50:00,46.0,45.2,30.12,SW,225,3.0,9.0,97,0.00,,,0.00,Weather View 32 v70,2013-02-11 06:50:00,
2013-02-11 01:55:00,46.0,45.2,30.12,SW,225,3.0,9.0,97,0.00,,,0.00,Weather View 32 v70,2013-02-11 06:55:00,
2013-02-11 02:00:00,46.0,45.2,30.12,SW,225,2.0,9.0,97,0.00,,,0.00,Weather View 32 v70,2013-02-11 07:00:00,
2013-02-11 02:05:00,46.0,45.2,30.11,SW,225,1.0,9.0,97,0.00,,,0.00,Weather View 32 v70,2013-02-11 07:05:00,
2013-02-11 02:10:00,46.0,45.2,30.11,SW,225,0.0,9.0,97,0.00,,,0.00,Weather View 32 v70,2013-02-11 07:10:00,
2013-02-11 02:15:00,46.0,45.2,30.11,SW,225,2.0,9.0,97,0.00,,,0.00,Weather View 32 v70,2013-02-11 07:15:00,
2013-02-11 02:20:00,46.0,45.2,30.11,SW,225,0.0,9.0,97,0.00,,,0.00,Weather View 32 v70,2013-02-11 07:20:00,
2013-02-11 02:25:00,46.0,45.2,30.12,SW,225,0.0,9.0,97,0.00,,,0.00,Weather View 32 v70,2013-02-11 07:25:00,
2013-02-11 02:30:00,46.0,45.2,30.12,SW,225,0.0,9.0,97,0.00,,,0.00,Weather View 32 v70,2013-02-11 07:30:00,
2013-02-11 02:35:00,46.0,45.2,30.11,SW,225,0.0,9.0,97,0.00,,,0.00,Weather View 32 v70,2013-02-11 07:35:00,
2013-02-11 02:40:00,46.0,45.2,30.11,SW,225,0.0,9.0,97,0.00,,,0.00,Weather View 32 v70,2013-02-11 07:40:00,
2013-02-11 02:45:00,46.0,45.2,30.11,SW,225,0.0,9.0,97,0.00,,,0.00,Weather View 32 v70,2013-02-11 07:45:00,
2013-02-11 02:50:00,45.0,44.2,30.11,SW,225,0.0,9.0,97,0.00,,,0.00,Weather View 32 v70,2013-02-11 07:50:00,
2013-02-11 02:55:00,46.0,45.2,30.10,SW,225,0.0,9.0,97,0.00,,,0.00,Weather View 32 v70,2013-02-11 07:55:00,
2013-02-11 03:00:00,45.0,44.2,30.10,SW,225,0.0,9.0,97,0.00,,,0.00,Weather View 32 v70,2013-02-11 08:00:00,
2013-02-11 03:05:00,46.0,45.2,30.09,SW,225,0.0,7.0,97,0.00,,,0.00,Weather View 32 v70,2013-02-11 08:05:00,
2013-02-11 03:10:00,45.0,44.2,30.09,SW,225,0.0,7.0,97,0.00,,,0.00,Weather View 32 v70,2013-02-11 08:10:00,
2013-02-11 03:15:00,46.0,45.2,30.08,SW,225,0.0,3.0,97,0.00,,,0.00,Weather View 32 v70,2013-02-11 08:15:00,
2013-02-11 03:20:00,45.0,44.2,30.08,SW,225,0.0,3.0,97,0.00,,,0.00,Weather View 32 v70,2013-02-11 08:20:00,
2013-02-11 03:25:00,46.0,45.2,30.08,SW,225,0.0,2.0,97,0.00,,,0.00,Weather View 32 v70,2013-02-11 08:25:00,
2013-02-11 03:30:00,45.0,44.2,30.08,SW,225,0.0,0.0,97,0.00,,,0.00,Weather View 32 v70,2013-02-11 08:30:00,
2013-02-11 03:35:00,46.0,45.2,30.07,SW,225,0.0,0.0,97,0.00,,,0.00,Weather View 32 v70,2013-02-11 08:35:00,
2013-02-11 03:40:00,45.0,44.2,30.07,SW,225,0.0,0.0,97,0.00,,,0.00,Weather View 32 v70,2013-02-11 08:40:00,
2013-02-11 03:45:00,46.0,45.2,30.07,SW,225,0.0,0.0,97,0.00,,,0.00,Weather View 32 v70,2013-02-11 08:45:00,
2013-02-11 03:50:00,45.0,44.2,30.07,SW,225,0.0,0.0,97,0.00,,,0.00,Weather View 32 v70,2013-02-11 08:50:00,
2013-02-11 03:55:00,46.0,45.2,30.06,SW,225,0.0,0.0,97,0.00,,,0.00,Weather View 32 v70,2013-02-11 08:55:00,
2013-02-11 04:00:00,45.0,44.2,30.06,SW,225,0.0,0.0,97,0.00,,,0.00,Weather View 32 v70,2013-02-11 09:00:00,
2013-02-11 04:05:00,45.0,44.2,30.06,SW,225,0.0,0.0,97,0.00,,,0.00,Weather View 32 v70,2013-02-11 09:05:00,
2013-02-11 04:10:00,45.0,44.2,30.06,SW,225,0.0,0.0,97,0.01,,,0.01,Weather View 32 v70,2013-02-11 09:10:00,
2013-02-11 04:15:00,45.0,44.2,30.06,SW,225,0.0,0.0,97,0.01,,,0.01,Weather View 32 v70,2013-02-11 09:15:00,
2013-02-11 04:20:00,45.0,44.2,30.06,SW,225,0.0,0.0,97,0.01,,,0.01,Weather View 32 v70,2013-02-11 09:20:00,
2013-02-11 04:25:00,45.0,44.2,30.06,SW,225,0.0,0.0,97,0.01,,,0.01,Weather View 32 v70,2013-02-11 09:25:00,
2013-02-11 04:30:00,45.0,44.2,30.06,SW,225,0.0,0.0,97,0.01,,,0.01,Weather View 32 v70,2013-02-11 09:30:00,
2013-02-11 04:35:00,45.0,44.2,30.07,SW,225,0.0,0.0,97,0.01,,,0.01,Weather View 32 v70,2013-02-11 09:35:00,
2013-02-11 04:40:00,45.0,44.2,30.07,SW,225,0.0,0.0,97,0.02,,,0.02,Weather View 32 v70,2013-02-11 09:40:00,
2013-02-11 04:45:00,45.0,44.2,30.06,SW,225,0.0,0.0,97,0.02,,,0.02,Weather View 32 v70,2013-02-11 09:45:00,
2013-02-11 04:50:00,45.0,44.2,30.06,SW,225,0.0,0.0,97,0.02,,,0.02,Weather View 32 v70,2013-02-11 09:50:00,
2013-02-11 04:55:00,45.0,44.2,30.06,WSW,247,0.0,1.0,97,0.02,,,0.02,Weather View 32 v70,2013-02-11 09:55:00,
2013-02-11 05:00:00,45.0,44.2,30.06,WSW,247,0.0,3.0,97,0.02,,,0.02,Weather View 32 v70,2013-02-11 10:00:00,
2013-02-11 05:05:00,45.0,44.2,30.06,WSW,247,1.0,3.0,97,0.02,,,0.02,Weather View 32 v70,2013-02-11 10:05:00,
2013-02-11 05:10:00,45.0,44.2,30.06,WSW,247,0.0,5.0,97,0.01,,,0.02,Weather View 32 v70,2013-02-11 10:10:00,
2013-02-11 05:15:00,45.0,44.2,30.07,WSW,247,0.0,5.0,97,0.01,,,0.02,Weather View 32 v70,2013-02-11 10:15:00,
2013-02-11 05:20:00,44.0,43.2,30.07,WSW,247,0.0,5.0,97,0.01,,,0.02,Weather View 32 v70,2013-02-11 10:20:00,
2013-02-11 05:25:00,45.0,44.2,30.07,WSW,247,0.0,5.0,97,0.01,,,0.02,Weather View 32 v70,2013-02-11 10:25:00,
2013-02-11 05:30:00,44.0,43.2,30.07,WSW,247,0.0,5.0,97,0.01,,,0.02,Weather View 32 v70,2013-02-11 10:30:00,
2013-02-11 05:35:00,44.0,43.2,30.07,West,270,0.0,5.0,97,0.02,,,0.03,Weather View 32 v70,2013-02-11 10:35:00,
2013-02-11 05:40:00,44.0,43.2,30.07,WNW,292,5.0,5.0,97,0.01,,,0.03,Weather View 32 v70,2013-02-11 10:40:00,
2013-02-11 05:45:00,44.0,43.2,30.06,WNW,292,5.0,8.0,97,0.01,,,0.03,Weather View 32 v70,2013-02-11 10:45:00,
2013-02-11 05:50:00,43.0,41.9,30.06,WNW,292,4.0,8.0,96,0.01,,,0.03,Weather View 32 v70,2013-02-11 10:50:00,
2013-02-11 05:55:00,43.0,41.9,30.07,WNW,292,3.0,8.0,96,0.01,,,0.03,Weather View 32 v70,2013-02-11 10:55:00,
2013-02-11 06:00:00,43.0,41.9,30.07,WNW,292,4.0,8.0,96,0.02,,,0.04,Weather View 32 v70,2013-02-11 11:00:00,
2013-02-11 06:05:00,43.0,41.9,30.08,WNW,292,3.0,8.0,96,0.02,,,0.04,Weather View 32 v70,2013-02-11 11:05:00,
2013-02-11 06:10:00,43.0,41.9,30.08,WNW,292,0.0,8.0,96,0.02,,,0.04,Weather View 32 v70,2013-02-11 11:10:00,
2013-02-11 06:15:00,43.0,41.9,30.08,WNW,292,3.0,8.0,96,0.02,,,0.04,Weather View 32 v70,2013-02-11 11:15:00,
2013-02-11 06:20:00,43.0,41.9,30.08,WNW,292,4.0,8.0,96,0.02,,,0.04,Weather View 32 v70,2013-02-11 11:20:00,
2013-02-11 06:25:00,43.0,41.9,30.08,WNW,292,2.0,8.0,96,-0.02,,,0.05,Weather View 32 v70,2013-02-11 11:25:00,
2013-02-11 06:30:00,42.0,40.9,30.08,WNW,292,0.0,8.0,96,-0.02,,,0.05,Weather View 32 v70,2013-02-11 11:30:00,
2013-02-11 06:35:00,42.0,40.9,30.08,WNW,292,0.0,8.0,96,0.02,,,0.05,Weather View 32 v70,2013-02-11 11:35:00,
2013-02-11 06:40:00,42.0,40.9,30.08,WNW,292,6.0,8.0,96,0.02,,,0.05,Weather View 32 v70,2013-02-11 11:40:00,
2013-02-11 06:45:00,42.0,40.9,30.09,WNW,292,6.0,8.0,96,0.03,,,0.06,Weather View 32 v70,2013-02-11 11:45:00,
2013-02-11 06:50:00,42.0,40.9,30.09,WNW,292,5.0,7.0,96,0.03,,,0.06,Weather View 32 v70,2013-02-11 11:50:00,
2013-02-11 06:55:00,42.0,40.9,30.08,WNW,292,0.0,7.0,96,0.03,,,0.06,Weather View 32 v70,2013-02-11 11:55:00,
2013-02-11 07:00:00,42.0,40.9,30.08,WNW,292,3.0,7.0,96,0.03,,,0.07,Weather View 32 v70,2013-02-11 12:00:00,
2013-02-11 07:05:00,42.0,40.9,30.07,WNW,292,0.0,7.0,96,0.03,,,0.07,Weather View 32 v70,2013-02-11 12:05:00,
2013-02-11 07:10:00,42.0,40.9,30.07,WNW,292,0.0,7.0,96,0.03,,,0.07,Weather View 32 v70,2013-02-11 12:10:00,
2013-02-11 07:15:00,42.0,40.9,30.07,WNW,292,0.0,7.0,96,0.03,,,0.07,Weather View 32 v70,2013-02-11 12:15:00,
2013-02-11 07:20:00,42.0,40.9,30.07,WNW,292,0.0,7.0,96,0.03,,,0.07,Weather View 32 v70,2013-02-11 12:20:00,
2013-02-11 07:25:00,42.0,40.9,30.06,WNW,292,0.0,7.0,96,0.02,,,0.07,Weather View 32 v70,2013-02-11 12:25:00,
2013-02-11 07:30:00,42.0,40.9,30.06,WNW,292,0.0,7.0,96,0.03,,,0.08,Weather View 32 v70,2013-02-11 12:30:00,
2013-02-11 07:35:00,43.0,41.9,30.05,WNW,292,0.0,7.0,96,0.03,,,0.08,Weather View 32 v70,2013-02-11 12:35:00,
2013-02-11 07:40:00,42.0,40.9,30.05,WNW,292,0.0,7.0,96,0.03,,,0.08,Weather View 32 v70,2013-02-11 12:40:00,
2013-02-11 07:45:00,43.0,41.9,30.03,WNW,292,1.0,6.0,96,0.02,,,0.08,Weather View 32 v70,2013-02-11 12:45:00,
2013-02-11 07:50:00,43.0,41.9,30.03,WNW,292,0.0,6.0,96,0.02,,,0.08,Weather View 32 v70,2013-02-11 12:50:00,
2013-02-11 07:59:00,43.0,41.9,30.03,WNW,292,0.0,6.0,96,0.01,,,0.08,Weather View 32 v70,2013-02-11 12:59:00,
2013-02-11 08:04:00,43.0,41.9,30.03,WNW,292,0.0,3.0,96,0.01,,,0.08,Weather View 32 v70,2013-02-11 13:04:00,
2013-02-11 08:09:00,43.0,41.9,30.04,WNW,292,0.0,3.0,96,0.01,,,0.08,Weather View 32 v70,2013-02-11 13:09:00,
2013-02-11 08:14:00,43.0,41.9,30.04,WNW,292,0.0,3.0,96,0.01,,,0.08,Weather View 32 v70,2013-02-11 13:14:00,
2013-02-11 08:19:00,43.0,41.9,30.04,WNW,292,0.0,3.0,96,0.01,,,0.08,Weather View 32 v70,2013-02-11 13:19:00,
2013-02-11 08:24:00,43.0,41.9,30.04,WNW,292,0.0,3.0,96,0.01,,,0.08,Weather View 32 v70,2013-02-11 13:24:00,
2013-02-11 08:29:00,43.0,41.9,30.04,WNW,292,0.0,3.0,96,0.00,,,0.08,Weather View 32 v70,2013-02-11 13:29:00,
2013-02-11 08:34:00,43.0,41.9,30.04,WNW,292,1.0,4.0,96,0.00,,,0.08,Weather View 32 v70,2013-02-11 13:34:00,
2013-02-11 08:39:00,44.0,43.2,30.04,WNW,292,2.0,4.0,97,0.00,,,0.08,Weather View 32 v70,2013-02-11 13:39:00,
2013-02-11 08:45:00,44.0,43.2,30.04,WNW,292,0.0,4.0,97,0.00,,,0.08,Weather View 32 v70,2013-02-11 13:45:00,
2013-02-11 08:50:00,44.0,43.2,30.04,WNW,292,1.0,4.0,97,0.00,,,0.08,Weather View 32 v70,2013-02-11 13:50:00,
2013-02-11 08:55:00,44.0,43.2,30.04,WNW,292,4.0,6.0,97,0.00,,,0.08,Weather View 32 v70,2013-02-11 13:55:00,
2013-02-11 09:00:00,44.0,43.2,30.05,WNW,292,4.0,6.0,97,0.00,,,0.08,Weather View 32 v70,2013-02-11 14:00:00,
2013-02-11 09:05:00,44.0,43.2,30.05,WNW,292,6.0,6.0,97,0.00,,,0.08,Weather View 32 v70,2013-02-11 14:05:00,
2013-02-11 09:10:00,44.0,43.2,30.04,WNW,292,0.0,7.0,97,0.00,,,0.08,Weather View 32 v70,2013-02-11 14:10:00,
2013-02-11 09:15:00,44.0,43.2,30.04,WNW,292,4.0,7.0,97,0.00,,,0.08,Weather View 32 v70,2013-02-11 14:15:00,
2013-02-11 09:20:00,44.0,43.2,30.04,WNW,292,3.0,7.0,97,0.00,,,0.08,Weather View 32 v70,2013-02-11 14:20:00,
2013-02-11 09:25:00,44.0,43.2,30.04,WNW,292,0.0,7.0,97,0.00,,,0.08,Weather View 32 v70,2013-02-11 14:25:00,
2013-02-11 09:30:00,44.0,43.2,30.05,WNW,292,0.0,7.0,97,0.00,,,0.08,Weather View 32 v70,2013-02-11 14:30:00,
2013-02-11 09:35:00,44.0,43.2,30.05,WNW,292,0.0,7.0,97,0.00,,,0.08,Weather View 32 v70,2013-02-11 14:35:00,
2013-02-11 09:40:00,44.0,43.2,30.05,WNW,292,0.0,7.0,97,0.00,,,0.08,Weather View 32 v70,2013-02-11 14:40:00,
2013-02-11 09:45:00,44.0,43.2,30.05,WNW,292,0.0,7.0,97,0.00,,,0.08,Weather View 32 v70,2013-02-11 14:45:00,
2013-02-11 09:50:00,44.0,43.2,30.05,WNW,292,0.0,7.0,97,0.00,,,0.08,Weather View 32 v70,2013-02-11 14:50:00,
2013-02-11 09:55:00,44.0,43.2,30.05,WNW,292,0.0,7.0,97,0.00,,,0.08,Weather View 32 v70,2013-02-11 14:55:00,
2013-02-11 10:00:00,44.0,43.2,30.04,WNW,292,0.0,7.0,97,0.00,,,0.08,Weather View 32 v70,2013-02-11 15:00:00,
2013-02-11 10:05:00,45.0,44.2,30.04,WNW,292,0.0,7.0,97,0.00,,,0.08,Weather View 32 v70,2013-02-11 15:05:00,
2013-02-11 10:10:00,45.0,44.2,30.03,WNW,292,0.0,6.0,97,0.00,,,0.08,Weather View 32 v70,2013-02-11 15:10:00,
2013-02-11 10:15:00,45.0,44.2,30.03,WNW,292,0.0,6.0,97,0.00,,,0.08,Weather View 32 v70,2013-02-11 15:15:00,
2013-02-11 10:20:00,45.0,44.2,30.03,WNW,292,0.0,6.0,97,0.00,,,0.08,Weather View 32 v70,2013-02-11 15:20:00,
2013-02-11 10:25:00,45.0,44.2,30.03,WNW,292,0.0,6.0,97,0.00,,,0.08,Weather View 32 v70,2013-02-11 15:25:00,
2013-02-11 10:30:00,45.0,44.2,30.02,WNW,292,0.0,2.0,97,0.00,,,0.08,Weather View 32 v70,2013-02-11 15:30:00,
2013-02-11 10:35:00,46.0,45.2,30.02,WNW,292,0.0,2.0,97,0.00,,,0.08,Weather View 32 v70,2013-02-11 15:35:00,
2013-02-11 10:40:00,46.0,45.2,30.01,WNW,292,0.0,2.0,97,0.00,,,0.08,Weather View 32 v70,2013-02-11 15:40:00,
2013-02-11 10:45:00,46.0,45.2,30.01,WNW,292,0.0,2.0,97,0.00,,,0.08,Weather View 32 v70,2013-02-11 15:45:00,
2013-02-11 10:50:00,46.0,45.2,30.01,WNW,292,0.0,3.0,97,0.00,,,0.08,Weather View 32 v70,2013-02-11 15:50:00,
2013-02-11 10:55:00,46.0,45.2,30.01,WNW,292,4.0,4.0,97,0.00,,,0.08,Weather View 32 v70,2013-02-11 15:55:00,
2013-02-11 11:00:00,46.0,45.2,30.01,WNW,292,0.0,4.0,97,0.00,,,0.08,Weather View 32 v70,2013-02-11 16:00:00,
2013-02-11 11:05:00,46.0,45.2,30.01,WNW,292,0.0,4.0,97,0.00,,,0.08,Weather View 32 v70,2013-02-11 16:05:00,
2013-02-11 11:10:00,47.0,46.2,30.01,WNW,292,0.0,4.0,97,0.00,,,0.08,Weather View 32 v70,2013-02-11 16:10:00,
2013-02-11 11:15:00,47.0,46.2,30.01,WNW,292,0.0,4.0,97,0.00,,,0.08,Weather View 32 v70,2013-02-11 16:15:00,
2013-02-11 11:20:00,47.0,46.2,30.00,WNW,292,0.0,4.0,97,0.00,,,0.08,Weather View 32 v70,2013-02-11 16:20:00,
2013-02-11 11:25:00,47.0,46.2,30.00,WNW,292,0.0,4.0,97,0.00,,,0.08,Weather View 32 v70,2013-02-11 16:25:00,
2013-02-11 11:30:00,47.0,46.2,29.99,WNW,292,0.0,4.0,97,0.00,,,0.08,Weather View 32 v70,2013-02-11 16:30:00,
2013-02-11 11:35:00,48.0,47.2,29.99,WNW,292,0.0,4.0,97,0.00,,,0.08,Weather View 32 v70,2013-02-11 16:35:00,
2013-02-11 11:40:00,48.0,47.2,29.99,WNW,292,0.0,4.0,97,0.00,,,0.08,Weather View 32 v70,2013-02-11 16:40:00,
2013-02-11 11:45:00,48.0,47.2,29.99,WNW,292,0.0,4.0,97,0.00,,,0.08,Weather View 32 v70,2013-02-11 16:45:00,
2013-02-11 11:50:00,48.0,47.2,29.99,WNW,292,0.0,4.0,97,0.00,,,0.08,Weather View 32 v70,2013-02-11 16:50:00,
2013-02-11 11:55:00,48.0,47.2,29.99,WNW,292,0.0,4.0,97,0.00,,,0.08,Weather View 32 v70,2013-02-11 16:55:00,
2013-02-11 12:00:00,48.0,47.2,29.99,WSW,247,3.0,6.0,97,0.00,,,0.08,Weather View 32 v70,2013-02-11 17:00:00,
2013-02-11 12:05:00,49.0,48.2,29.99,SW,225,5.0,10.0,97,0.00,,,0.08,Weather View 32 v70,2013-02-11 17:05:00,
2013-02-11 12:10:00,49.0,48.2,29.98,SSW,202,5.0,10.0,97,0.00,,,0.08,Weather View 32 v70,2013-02-11 17:10:00,
2013-02-11 12:15:00,49.0,48.2,29.98,SSW,202,2.0,10.0,97,0.00,,,0.08,Weather View 32 v70,2013-02-11 17:15:00,
2013-02-11 12:20:00,49.0,48.2,29.97,SSW,202,3.0,10.0,97,0.00,,,0.08,Weather View 32 v70,2013-02-11 17:20:00,
2013-02-11 12:25:00,49.0,48.2,29.97,SW,225,2.0,10.0,97,0.00,,,0.08,Weather View 32 v70,2013-02-11 17:25:00,
2013-02-11 12:30:00,50.0,49.2,29.97,SW,225,3.0,10.0,97,0.00,,,0.08,Weather View 32 v70,2013-02-11 17:30:00,
2013-02-11 12:35:00,50.0,49.2,29.97,WSW,247,4.0,10.0,97,0.00,,,0.08,Weather View 32 v70,2013-02-11 17:35:00,
2013-02-11 12:40:00,50.0,49.2,29.97,WSW,247,9.0,10.0,97,0.00,,,0.08,Weather View 32 v70,2013-02-11 17:40:00,
2013-02-11 12:45:00,50.0,49.2,29.97,WSW,247,7.0,10.0,97,0.00,,,0.08,Weather View 32 v70,2013-02-11 17:45:00,
2013-02-11 12:50:00,50.0,49.2,29.97,SW,225,5.0,10.0,97,0.00,,,0.08,Weather View 32 v70,2013-02-11 17:50:00,
2013-02-11 12:55:00,50.0,49.2,29.97,SW,225,6.0,10.0,97,0.00,,,0.08,Weather View 32 v70,2013-02-11 17:55:00,
2013-02-11 13:00:00,50.0,49.2,29.97,SW,225,5.0,10.0,97,0.00,,,0.08,Weather View 32 v70,2013-02-11 18:00:00,
2013-02-11 13:05:00,50.0,49.2,29.97,WSW,247,3.0,10.0,97,0.00,,,0.08,Weather View 32 v70,2013-02-11 18:05:00,
2013-02-11 13:10:00,50.0,49.2,29.96,SW,225,2.0,10.0,97,0.00,,,0.08,Weather View 32 v70,2013-02-11 18:10:00,
2013-02-11 13:15:00,50.0,49.2,29.96,SW,225,3.0,10.0,97,0.00,,,0.08,Weather View 32 v70,2013-02-11 18:15:00,
2013-02-11 13:20:00,51.0,50.2,29.94,SSW,202,5.0,10.0,97,0.00,,,0.08,Weather View 32 v70,2013-02-11 18:20:00,
2013-02-11 13:25:00,51.0,50.2,29.94,SSW,202,5.0,10.0,97,0.00,,,0.08,Weather View 32 v70,2013-02-11 18:25:00,
2013-02-11 13:30:00,51.0,50.2,29.92,SSW,202,4.0,10.0,97,0.00,,,0.08,Weather View 32 v70,2013-02-11 18:30:00,
2013-02-11 13:35:00,51.0,50.2,29.92,SSW,202,6.0,11.0,97,0.00,,,0.08,Weather View 32 v70,2013-02-11 18:35:00,
2013-02-11 13:40:00,51.0,50.2,29.92,SSW,202,5.0,11.0,97,0.00,,,0.08,Weather View 32 v70,2013-02-11 18:40:00,
2013-02-11 13:45:00,51.0,50.2,29.92,SW,225,6.0,11.0,97,0.00,,,0.08,Weather View 32 v70,2013-02-11 18:45:00,
2013-02-11 13:50:00,51.0,50.2,29.92,SW,225,3.0,11.0,97,0.00,,,0.08,Weather View 32 v70,2013-02-11 18:50:00,
2013-02-11 13:55:00,51.0,50.2,29.92,SW,225,4.0,11.0,97,0.00,,,0.08,Weather View 32 v70,2013-02-11 18:55:00,
2013-02-11 14:00:00,51.0,50.2,29.92,SW,225,6.0,11.0,97,0.00,,,0.08,Weather View 32 v70,2013-02-11 19:00:00,
2013-02-11 14:05:00,52.0,51.2,29.92,SW,225,5.0,12.0,97,0.00,,,0.08,Weather View 32 v70,2013-02-11 19:05:00,
2013-02-11 14:10:00,52.0,51.2,29.91,SW,225,5.0,12.0,97,0.00,,,0.08,Weather View 32 v70,2013-02-11 19:10:00,
2013-02-11 14:15:00,52.0,51.2,29.91,SW,225,6.0,12.0,97,0.00,,,0.08,Weather View 32 v70,2013-02-11 19:15:00,
2013-02-11 14:20:00,52.0,51.2,29.91,SW,225,5.0,12.0,97,0.00,,,0.08,Weather View 32 v70,2013-02-11 19:20:00,
2013-02-11 14:25:00,52.0,51.2,29.91,SW,225,5.0,12.0,97,0.00,,,0.08,Weather View 32 v70,2013-02-11 19:25:00,
2013-02-11 14:30:00,52.0,51.2,29.92,SW,225,4.0,12.0,97,0.00,,,0.08,Weather View 32 v70,2013-02-11 19:30:00,
2013-02-11 14:35:00,52.0,51.2,29.92,West,270,7.0,12.0,97,0.00,,,0.08,Weather View 32 v70,2013-02-11 19:35:00,
2013-02-11 14:40:00,52.0,51.2,29.93,WSW,247,7.0,14.0,97,0.00,,,0.08,Weather View 32 v70,2013-02-11 19:40:00,
2013-02-11 14:45:00,52.0,51.2,29.93,SW,225,4.0,14.0,97,0.00,,,0.08,Weather View 32 v70,2013-02-11 19:45:00,
2013-02-11 14:50:00,52.0,51.2,29.93,WSW,247,7.0,14.0,97,0.00,,,0.08,Weather View 32 v70,2013-02-11 19:50:00,
2013-02-11 14:55:00,52.0,51.2,29.93,WSW,247,3.0,14.0,97,0.00,,,0.08,Weather View 32 v70,2013-02-11 19:55:00,
2013-02-11 15:00:00,52.0,51.2,29.93,SW,225,3.0,14.0,97,0.00,,,0.08,Weather View 32 v70,2013-02-11 20:00:00,
2013-02-11 15:05:00,52.0,51.2,29.93,SW,225,6.0,14.0,97,-0.08,,,0.08,Weather View 32 v70,2013-02-11 20:05:00,
2013-02-11 15:10:00,53.0,52.2,29.91,SW,225,4.0,14.0,97,0.01,,,0.09,Weather View 32 v70,2013-02-11 20:10:00,
2013-02-11 15:15:00,53.0,52.2,29.91,SW,225,6.0,14.0,97,0.01,,,0.09,Weather View 32 v70,2013-02-11 20:15:00,
2013-02-11 15:20:00,53.0,52.2,29.91,SSW,202,7.0,14.0,97,0.01,,,0.09,Weather View 32 v70,2013-02-11 20:20:00,
2013-02-11 15:25:00,53.0,52.2,29.91,WSW,247,9.0,14.0,97,0.01,,,0.09,Weather View 32 v70,2013-02-11 20:25:00,
2013-02-11 15:30:00,53.0,52.2,29.91,SW,225,9.0,14.0,97,0.01,,,0.09,Weather View 32 v70,2013-02-11 20:30:00,
2013-02-11 15:35:00,53.0,52.2,29.91,SW,225,6.0,14.0,97,0.01,,,0.09,Weather View 32 v70,2013-02-11 20:35:00,
2013-02-11 15:40:00,53.0,52.2,29.90,SSW,202,6.0,14.0,97,0.01,,,0.09,Weather View 32 v70,2013-02-11 20:40:00,
2013-02-11 15:46:00,53.0,52.2,29.90,SW,225,5.0,14.0,97,0.01,,,0.09,Weather View 32 v70,2013-02-11 20:46:00,
2013-02-11 15:51:00,54.0,53.2,29.89,SW,225,4.0,14.0,97,0.01,,,0.09,Weather View 32 v70,2013-02-11 20:51:00,
2013-02-11 15:56:00,53.0,52.2,29.89,SW,225,4.0,14.0,97,0.01,,,0.09,Weather View 32 v70,2013-02-11 20:56:00,
2013-02-11 16:01:00,53.0,52.2,29.89,WSW,247,7.0,14.0,97,0.01,,,0.09,Weather View 32 v70,2013-02-11 21:01:00,
2013-02-11 16:06:00,54.0,53.2,29.89,West,270,7.0,14.0,97,0.01,,,0.09,Weather View 32 v70,2013-02-11 21:06:00,
2013-02-11 16:11:00,54.0,53.2,29.90,WSW,247,5.0,14.0,97,0.00,,,0.09,Weather View 32 v70,2013-02-11 21:11:00,
2013-02-11 16:16:00,54.0,53.2,29.90,SW,225,7.0,14.0,97,0.00,,,0.09,Weather View 32 v70,2013-02-11 21:16:00,
2013-02-11 16:21:00,54.0,53.2,29.89,SW,225,4.0,14.0,97,0.00,,,0.09,Weather View 32 v70,2013-02-11 21:21:00,
2013-02-11 16:26:00,54.0,53.2,29.89,WSW,247,8.0,14.0,97,0.00,,,0.09,Weather View 32 v70,2013-02-11 21:26:00,
2013-02-11 16:31:00,54.0,53.2,29.89,West,270,9.0,14.0,97,0.00,,,0.09,Weather View 32 v70,2013-02-11 21:31:00,
2013-02-11 16:36:00,54.0,53.2,29.89,West,270,9.0,14.0,97,0.00,,,0.09,Weather View 32 v70,2013-02-11 21:36:00,
2013-02-11 16:41:00,55.0,54.2,29.90,WSW,247,6.0,14.0,97,0.00,,,0.09,Weather View 32 v70,2013-02-11 21:41:00,
2013-02-11 16:46:00,55.0,54.2,29.90,WSW,247,12.0,14.0,97,0.00,,,0.09,Weather View 32 v70,2013-02-11 21:46:00,
2013-02-11 16:51:00,55.0,54.2,29.90,SW,225,2.0,14.0,97,0.00,,,0.09,Weather View 32 v70,2013-02-11 21:51:00,
2013-02-11 16:56:00,55.0,54.2,29.89,SSW,202,6.0,14.0,97,0.00,,,0.09,Weather View 32 v70,2013-02-11 21:56:00,
2013-02-11 17:01:00,55.0,54.2,29.89,West,270,4.0,14.0,97,0.00,,,0.09,Weather View 32 v70,2013-02-11 22:01:00,
2013-02-11 17:06:00,55.0,54.2,29.89,WSW,247,6.0,14.0,97,0.00,,,0.09,Weather View 32 v70,2013-02-11 22:06:00,
2013-02-11 17:11:00,55.0,54.2,29.89,West,270,6.0,14.0,97,0.00,,,0.09,Weather View 32 v70,2013-02-11 22:11:00,
2013-02-11 17:16:00,56.0,55.2,29.89,WSW,247,12.0,14.0,97,0.00,,,0.09,Weather View 32 v70,2013-02-11 22:16:00,
2013-02-11 17:21:00,55.0,54.2,29.89,SW,225,3.0,14.0,97,0.00,,,0.09,Weather View 32 v70,2013-02-11 22:21:00,
2013-02-11 17:26:00,56.0,55.2,29.89,SW,225,2.0,14.0,97,0.00,,,0.09,Weather View 32 v70,2013-02-11 22:26:00,
2013-02-11 17:31:00,55.0,54.2,29.89,SSW,202,4.0,14.0,97,0.00,,,0.09,Weather View 32 v70,2013-02-11 22:31:00,
2013-02-11 17:36:00,56.0,55.2,29.89,SSW,202,7.0,12.0,97,0.00,,,0.09,Weather View 32 v70,2013-02-11 22:36:00,
2013-02-11 17:41:00,56.0,55.2,29.89,SSW,202,5.0,12.0,97,0.00,,,0.09,Weather View 32 v70,2013-02-11 22:41:00,
2013-02-11 17:46:00,56.0,55.2,29.89,SSW,202,5.0,12.0,97,0.00,,,0.09,Weather View 32 v70,2013-02-11 22:46:00,
2013-02-11 17:51:00,56.0,55.2,29.89,SSW,202,6.0,12.0,97,0.00,,,0.09,Weather View 32 v70,2013-02-11 22:51:00,
2013-02-11 17:56:00,56.0,55.2,29.89,SSW,202,8.0,12.0,97,0.00,,,0.09,Weather View 32 v70,2013-02-11 22:56:00,
2013-02-11 18:01:00,56.0,55.2,29.89,SW,225,6.0,12.0,97,0.00,,,0.09,Weather View 32 v70,2013-02-11 23:01:00,
2013-02-11 18:06:00,56.0,55.2,29.89,SW,225,7.0,12.0,97,0.00,,,0.09,Weather View 32 v70,2013-02-11 23:06:00,
2013-02-11 18:11:00,56.0,55.2,29.89,SSW,202,4.0,15.0,97,0.00,,,0.09,Weather View 32 v70,2013-02-11 23:11:00,
2013-02-11 18:16:00,56.0,55.2,29.89,South,180,4.0,15.0,97,0.00,,,0.09,Weather View 32 v70,2013-02-11 23:16:00,
2013-02-11 18:21:00,56.0,55.2,29.89,SSW,202,5.0,15.0,97,0.00,,,0.09,Weather View 32 v70,2013-02-11 23:21:00,
2013-02-11 18:26:00,56.0,55.2,29.89,SW,225,6.0,15.0,97,0.00,,,0.09,Weather View 32 v70,2013-02-11 23:26:00,
2013-02-11 18:31:00,56.0,55.2,29.89,SW,225,6.0,15.0,97,0.00,,,0.09,Weather View 32 v70,2013-02-11 23:31:00,
2013-02-11 18:36:00,56.0,55.2,29.89,SSW,202,6.0,15.0,97,0.00,,,0.09,Weather View 32 v70,2013-02-11 23:36:00,
2013-02-11 18:41:00,56.0,55.2,29.89,SSW,202,7.0,15.0,97,0.00,,,0.09,Weather View 32 v70,2013-02-11 23:41:00,
2013-02-11 18:46:00,56.0,55.2,29.89,SSW,202,5.0,15.0,97,0.00,,,0.09,Weather View 32 v70,2013-02-11 23:46:00,
2013-02-11 18:51:00,56.0,55.2,29.89,SW,225,6.0,15.0,97,0.00,,,0.09,Weather View 32 v70,2013-02-11 23:51:00,
2013-02-11 18:56:00,56.0,55.2,29.90,SW,225,6.0,15.0,97,0.00,,,0.09,Weather View 32 v70,2013-02-11 23:56:00,
2013-02-11 19:01:00,56.0,55.2,29.90,WSW,247,4.0,15.0,97,0.00,,,0.09,Weather View 32 v70,2013-02-12 00:01:00,
2013-02-11 19:06:00,56.0,55.2,29.90,SW,225,6.0,15.0,97,0.00,,,0.09,Weather View 32 v70,2013-02-12 00:06:00,
2013-02-11 19:11:00,56.0,55.2,29.90,SW,225,6.0,13.0,97,0.00,,,0.09,Weather View 32 v70,2013-02-12 00:11:00,
2013-02-11 19:16:00,56.0,55.2,29.91,SSW,202,7.0,13.0,97,0.00,,,0.09,Weather View 32 v70,2013-02-12 00:16:00,
2013-02-11 19:21:00,56.0,55.2,29.91,SW,225,6.0,13.0,97,0.00,,,0.09,Weather View 32 v70,2013-02-12 00:21:00,
2013-02-11 19:26:00,56.0,55.2,29.91,SW,225,6.0,13.0,97,0.00,,,0.09,Weather View 32 v70,2013-02-12 00:26:00,
2013-02-11 19:31:00,56.0,55.2,29.91,WSW,247,9.0,13.0,97,0.00,,,0.09,Weather View 32 v70,2013-02-12 00:31:00,
2013-02-11 19:36:00,56.0,55.2,29.90,SSW,202,7.0,13.0,97,0.00,,,0.09,Weather View 32 v70,2013-02-12 00:36:00,
2013-02-11 19:41:00,56.0,55.2,29.90,SSW,202,8.0,13.0,97,0.00,,,0.09,Weather View 32 v70,2013-02-12 00:41:00,
2013-02-11 19:46:00,56.0,55.2,29.90,SSW,202,6.0,13.0,97,0.00,,,0.09,Weather View 32 v70,2013-02-12 00:46:00,
2013-02-11 19:51:00,55.0,54.2,29.90,SW,225,7.0,13.0,97,0.00,,,0.09,Weather View 32 v70,2013-02-12 00:51:00,
2013-02-11 19:56:00,56.0,55.2,29.91,WSW,247,7.0,13.0,97,0.00,,,0.09,Weather View 32 v70,2013-02-12 00:56:00,
2013-02-11 20:01:00,55.0,54.2,29.91,SSW,202,5.0,13.0,97,0.00,,,0.09,Weather View 32 v70,2013-02-12 01:01:00,
2013-02-11 20:06:00,56.0,55.2,29.90,SSW,202,4.0,13.0,97,0.00,,,0.09,Weather View 32 v70,2013-02-12 01:06:00,
2013-02-11 20:11:00,55.0,54.2,29.90,SSW,202,5.0,13.0,97,0.00,,,0.09,Weather View 32 v70,2013-02-12 01:11:00,
2013-02-11 20:16:00,55.0,54.2,29.90,SW,225,4.0,13.0,97,0.00,,,0.09,Weather View 32 v70,2013-02-12 01:16:00,
2013-02-11 20:21:00,55.0,54.2,29.90,SSW,202,6.0,13.0,97,0.00,,,0.09,Weather View 32 v70,2013-02-12 01:21:00,
2013-02-11 20:26:00,55.0,54.2,29.91,SW,225,5.0,13.0,97,0.00,,,0.09,Weather View 32 v70,2013-02-12 01:26:00,
2013-02-11 20:31:00,55.0,54.2,29.91,WSW,247,8.0,13.0,97,0.00,,,0.09,Weather View 32 v70,2013-02-12 01:31:00,
2013-02-11 20:36:00,55.0,54.2,29.90,SW,225,6.0,13.0,97,0.00,,,0.09,Weather View 32 v70,2013-02-12 01:36:00,
2013-02-11 20:41:00,55.0,54.2,29.90,WSW,247,9.0,13.0,97,0.00,,,0.09,Weather View 32 v70,2013-02-12 01:41:00,
2013-02-11 20:46:00,55.0,54.2,29.90,West,270,9.0,17.0,97,0.00,,,0.09,Weather View 32 v70,2013-02-12 01:46:00,
2013-02-11 20:51:00,54.0,53.2,29.90,SW,225,5.0,17.0,97,0.00,,,0.09,Weather View 32 v70,2013-02-12 01:51:00,
2013-02-11 20:56:00,55.0,54.2,29.90,SW,225,5.0,17.0,97,0.00,,,0.09,Weather View 32 v70,2013-02-12 01:56:00,
2013-02-11 21:01:00,54.0,53.2,29.90,SW,225,8.0,17.0,97,0.00,,,0.09,Weather View 32 v70,2013-02-12 02:01:00,
2013-02-11 21:06:00,54.0,53.2,29.91,SSW,202,4.0,17.0,97,0.00,,,0.09,Weather View 32 v70,2013-02-12 02:06:00,
2013-02-11 21:11:00,54.0,53.2,29.91,SW,225,2.0,17.0,97,0.00,,,0.09,Weather View 32 v70,2013-02-12 02:11:00,
2013-02-11 21:16:00,54.0,53.2,29.91,SW,225,4.0,17.0,97,0.00,,,0.09,Weather View 32 v70,2013-02-12 02:16:00,
2013-02-11 21:21:00,54.0,53.2,29.91,SSW,202,5.0,17.0,97,0.00,,,0.09,Weather View 32 v70,2013-02-12 02:21:00,
2013-02-11 21:26:00,54.0,53.2,29.91,SW,225,4.0,17.0,97,0.00,,,0.09,Weather View 32 v70,2013-02-12 02:26:00,
2013-02-11 21:31:00,54.0,53.2,29.91,SW,225,5.0,17.0,97,0.00,,,0.09,Weather View 32 v70,2013-02-12 02:31:00,
2013-02-11 21:36:00,54.0,53.2,29.91,WSW,247,5.0,17.0,97,0.00,,,0.09,Weather View 32 v70,2013-02-12 02:36:00,
2013-02-11 21:41:00,53.0,52.2,29.91,SW,225,6.0,17.0,97,0.00,,,0.09,Weather View 32 v70,2013-02-12 02:41:00,
2013-02-11 21:46:00,54.0,53.2,29.91,SW,225,8.0,12.0,97,0.00,,,0.09,Weather View 32 v70,2013-02-12 02:46:00,
2013-02-11 21:51:00,53.0,52.2,29.91,SSW,202,5.0,12.0,97,0.00,,,0.09,Weather View 32 v70,2013-02-12 02:51:00,
2013-02-11 21:56:00,53.0,52.2,29.91,SW,225,7.0,12.0,97,0.00,,,0.09,Weather View 32 v70,2013-02-12 02:56:00,
2013-02-11 22:01:00,53.0,52.2,29.91,SW,225,8.0,12.0,97,0.00,,,0.09,Weather View 32 v70,2013-02-12 03:01:00,
2013-02-11 22:06:00,53.0,52.2,29.91,WSW,247,6.0,12.0,97,0.00,,,0.09,Weather View 32 v70,2013-02-12 03:06:00,
2013-02-11 22:11:00,53.0,52.2,29.91,WSW,247,6.0,12.0,97,0.00,,,0.09,Weather View 32 v70,2013-02-12 03:11:00,
2013-02-11 22:16:00,53.0,52.2,29.91,SW,225,6.0,12.0,97,0.00,,,0.09,Weather View 32 v70,2013-02-12 03:16:00,
2013-02-11 22:21:00,53.0,52.2,29.91,SW,225,5.0,12.0,97,0.00,,,0.09,Weather View 32 v70,2013-02-12 03:21:00,
2013-02-11 22:26:00,53.0,52.2,29.91,SW,225,2.0,12.0,97,0.00,,,0.09,Weather View 32 v70,2013-02-12 03:26:00,
2013-02-11 22:31:00,53.0,52.2,29.91,SW,225,5.0,12.0,97,0.00,,,0.09,Weather View 32 v70,2013-02-12 03:31:00,
2013-02-11 22:36:00,53.0,52.2,29.91,SSW,202,6.0,12.0,97,0.00,,,0.09,Weather View 32 v70,2013-02-12 03:36:00,
2013-02-11 22:41:00,52.0,51.2,29.91,SW,225,6.0,12.0,97,0.00,,,0.09,Weather View 32 v70,2013-02-12 03:41:00,
2013-02-11 22:46:00,52.0,51.2,29.92,WSW,247,7.0,12.0,97,0.00,,,0.09,Weather View 32 v70,2013-02-12 03:46:00,
2013-02-11 22:51:00,52.0,51.2,29.92,SW,225,5.0,12.0,97,0.00,,,0.09,Weather View 32 v70,2013-02-12 03:51:00,
2013-02-11 22:56:00,52.0,51.2,29.92,WSW,247,5.0,12.0,97,0.00,,,0.09,Weather View 32 v70,2013-02-12 03:56:00,
2013-02-11 23:01:00,52.0,51.2,29.92,WSW,247,3.0,12.0,97,0.00,,,0.09,Weather View 32 v70,2013-02-12 04:01:00,
2013-02-11 23:06:00,52.0,51.2,29.92,WSW,247,9.0,12.0,97,0.00,,,0.09,Weather View 32 v70,2013-02-12 04:06:00,
2013-02-11 23:11:00,52.0,51.2,29.92,WSW,247,7.0,12.0,97,0.00,,,0.09,Weather View 32 v70,2013-02-12 04:11:00,
2013-02-11 23:16:00,52.0,51.2,29.92,WSW,247,3.0,12.0,97,0.00,,,0.09,Weather View 32 v70,2013-02-12 04:16:00,
2013-02-11 23:21:00,52.0,51.2,29.92,WSW,247,7.0,12.0,97,0.00,,,0.09,Weather View 32 v70,2013-02-12 04:21:00,
2013-02-11 23:26:00,52.0,51.2,29.91,SW,225,7.0,12.0,97,0.00,,,0.09,Weather View 32 v70,2013-02-12 04:26:00,
2013-02-11 23:31:00,52.0,51.2,29.91,WSW,247,7.0,12.0,97,0.00,,,0.09,Weather View 32 v70,2013-02-12 04:31:00,
2013-02-11 23:36:00,52.0,51.2,29.91,SW,225,11.0,12.0,97,0.04,,,0.09,Weather View 32 v70,2013-02-12 04:36:00,
2013-02-11 23:41:00,52.0,51.2,29.91,WSW,247,8.0,13.0,97,0.00,,,0.09,Weather View 32 v70,2013-02-12 04:41:00,
2013-02-11 23:46:00,52.0,51.2,29.92,WSW,247,7.0,13.0,97,0.00,,,0.09,Weather View 32 v70,2013-02-12 04:46:00,
2013-02-11 23:51:00,52.0,51.2,29.92,WSW,247,7.0,13.0,97,0.00,,,0.09,Weather View 32 v70,2013-02-12 04:51:00,
2013-02-11 23:56:00,52.0,51.2,29.92,WSW,247,6.0,13.0,97,0.00,,,0.09,Weather View 32 v70,2013-02-12 04:56:00,